IRIDIUM 131

Last updated on Sun Jun 21 2026 00:03:14 GMT+0000 (Coordinated Universal Time)

1 43079U 17083K 26171.39897108 .00000100 00000+0 28690-4 0 9993 2 43079 86.3972 320.8335 0002222 91.9806 268.1644 14.34217700444568
UTC large
Height (km)
Speed (km/s)
/
Latitude / Longitude
Inclination (degrees)
Orbital Period (minutes)
Azimuth
Elevation
Range (km)
Doppler Factor

Next 0 passes for location: London (51.5072 / 0.1276)

No passes found over London.
IRIDIUM 131